Regional Weather Roundup
Issued by NWS

Home | Current Version | Previous Version | Graphics & Text | Print | Product List | Glossary On
Versions: 1 2 3 4 5 6 7 8 9 10 11 12 13 14 15 16 17 18 19 20 21 22 23 24 25 26 27 28 29 30 31 32 33 34 35 36 37 38 39 40 41 42 43 44 45 46 47 48 49 50
000
ASUS43 KLSX 122107
RWRMO

WEATHER SUMMARY FOR MISSOURI
NATIONAL WEATHER SERVICE SPRINGFIELD MO
300 PM CST FRI FEB 12 2016

NOTE: "FAIR" INDICATES FEW OR NO CLOUDS BELOW 12,000 FEET WITH NO
       SIGNIFICANT WEATHER AND/OR OBSTRUCTIONS TO VISIBILITY.
       CURRENT SKY AND/OR WEATHER CONDITIONS ARE NOT AVAILABLE FOR
       CHILLICOTHE AND FARMINGTON.

MOZ001>031-035>038-043-044-053-054-122200-
...NORTHERN AND WESTERN MISSOURI...

CITY           SKY/WX    TMP DP  RH WIND       PRES   REMARKS
KANSAS CTY INT MOSUNNY   35  14  42 N15G23    30.44S WCI  25
KANSAS C DTWN  SUNNY     38  15  39 N15G24    30.44S WCI  29
LEE`S SUMMIT   SUNNY     35  14  42 N22G29    30.42S WCI  23
ST JOSEPH      SUNNY     33  11  39 N16G26    30.48S WCI  23
CHILLICOTHE      N/A     33  10  38 N9G23     30.45R WCI  25
KIRKSVILLE     SUNNY     27  10  49 NW15G21   30.41R WCI  15

$$
MOZ066>068-077>081-088>096-101>105-122200-
...SOUTHWEST MISSOURI...

CITY           SKY/WX    TMP DP  RH WIND       PRES   REMARKS
SPRINGFIELD    SUNNY     44  22  41 N16       30.32S
JOPLIN         SUNNY     45  26  47 N10       30.38S

$$
MOZ032>034-039>042-045>050-055>058-069>072-122200-
...CENTRAL MISSOURI...

CITY           SKY/WX    TMP DP  RH WIND       PRES   REMARKS
COLUMBIA       SUNNY     34  16  47 NW21      30.36R WCI  22
JEFFERSON CITY SUNNY     36  15  42 NW20G25   30.37R WCI  25
ROLLA          SUNNY     37  19  48 NW15G24   30.30R WCI  28
SEDALIA        SUNNY     37  15  40 N20G26    30.41R WCI  27
WHITEMAN AFB   MOSUNNY   36  14  39 N20G25    30.40R WCI  26
WARRENSBURG    SUNNY     36  16  44 NW17G23   30.42R WCI  25
OSAGE BEACH    MOSUNNY   41  19  42 NW9G16    30.35R

$$
MOZ051-052-059>065-122200-
...EAST CENTRAL MISSOURI...

CITY           SKY/WX    TMP DP  RH WIND       PRES   REMARKS
ST LOUIS INTL  PTSUNNY   30  19  63 N17G24    30.33R WCI  18
SPIRIT OF STL  PTSUNNY   32  19  59 NW15      30.34R WCI  22
ST CHARLES     MOSUNNY   31  18  58 NW21G29   30.34R WCI  18

$$
MOZ072>076-082>087-097>100-106>115-122200-
...SOUTH CENTRAL AND SOUTHEAST MISSOURI...

CITY           SKY/WX    TMP DP  RH WIND       PRES   REMARKS
CAPE GIRARDEAU MOSUNNY   40  25  55 N15       30.28R
FARMINGTON     MOSUNNY   38  21  50 NW15G24   30.27S WCI  29
POPLAR BLUFF   SUNNY     48  25  40 N15       30.25S
WEST PLAINS    SUNNY     48  21  34 N13G22    30.28R

$$


USA.gov is the U.S. government's official web portal to all federal, state and local government web resources and services.